Torna al catalogo

STARLINK-31073

AttivoComunicazioniVLEO
NORAD 58773·PAYLOAD·🇺🇸 United States

Lanciato Jan 14, 2024 da Vandenberg Space Force Base

Loading…

Prossimi Passaggi (prossime 24 ore)

TLE

AggiornatoSource: CelesTrak SupGP

Epoca: Sep 14, 2026, 13:51 UTC

1 58773C 24011J   26257.57756944 -.00022371  00000+0 -66123-3 0  2571
2 58773  53.1579 215.5109 0001353  87.8602 182.4408 15.34388895    10

Traccia STARLINK-31073 in tempo reale con AllMySat

Download on the App Store